Hourly Weather Roundup
Issued by NWS Central Illinois

Home | Current Version | Previous Version | Text Only | Print | Product List | Glossary On
Versions: 1 2 3 4 5 6 7 8 9 10 11 12 13 14 15 16 17 18 19 20 21 22 23 24 25 26 27 28 29 30 31 32 33 34 35 36 37 38 39 40 41 42 43 44 45 46 47 48 49 50
000
NZUS43 KILX 221526
HWRILX

AREA WEATHER ROUNDUP
NATIONAL WEATHER SERVICE, LINCOLN IL
1000 AM CDT WED OCT 22 2014


CITY           SKY/WX    TMP DP  RH WIND       PRES   REMARKS
BLOOMINGTON    SUNNY     50  41  71 SE6       30.37R
CHAMPAIGN      SUNNY     49  39  68 E8        30.35R
DECATUR        SUNNY     49  40  71 SE8       30.36R
FLORA          SUNNY     51  40  68 E7        30.34S
GALESBURG      SUNNY     49  41  74 SE7       30.34S
JACKSONVILLE   SUNNY     52  43  71 SE13      30.34S
LACON          SUNNY     47  40  76 SE6       30.35F
LAWRENCEVILLE  SUNNY     50  40  68 E6        30.34R
LITCHFIELD     SUNNY     50  41  72 SE6       30.34R
$$


CITY           SKY/WX    TMP DP  RH WIND       PRES   REMARKS
LINCOLN        SUNNY     51  40  64 SE3       30.35S
MACOMB         SUNNY     48  43  81 SE10      30.36S
MATTOON        SUNNY     49  39  68 E10       30.34R
MT CARMEL AP   SUNNY     54  41  62 E7        30.34S
OLNEY-NOBLE AP SUNNY     50  39  66 E7        30.34S
PARIS          SUNNY     51  38  62 NE6       30.35S
PEORIA         SUNNY     49  40  71 E7        30.36R
PONTIAC        SUNNY     48  38  68 SE6       30.38S
RANTOUL          N/A     52  37  57 E6        30.36S
ROBINSON       SUNNY     53  41  63 E8        30.35S
SPRINGFIELD    SUNNY     51  40  65 SE6       30.36R
TAYLORVILLE    SUNNY     48  39  71 SE8       30.35R
$$

...REGIONAL REPORTS...


CITY           SKY/WX    TMP DP  RH WIND       PRES   REMARKS
CHICAGO O`HARE MOSUNNY   49  40  71 SE7       30.36R
KANKAKEE       SUNNY     48  39  69 E5        30.38R
MOLINE         SUNNY     46  40  79 E6        30.35R
MOUNT VERNON   SUNNY     52  43  71 E7        30.34R
PITTSFIELD     SUNNY     51  42  72 SE7       30.34R
QUINCY         SUNNY     49  41  74 SE10      30.32R
ROCKFORD       SUNNY     46  39  76 CALM      30.37F
$$


CITY           SKY/WX    TMP DP  RH WIND       PRES   REMARKS
BURLINGTON     SUNNY     48  42  80 VRB6      30.33R
CEDAR RAPIDS   SUNNY     46  40  79 SE8       30.31R
DES MOINES     PTSUNNY   50  41  71 SE14      30.23F
KIRKSVILLE     SUNNY     49  44  83 SE14      30.29S
OTTUMWA        NOT AVBL
ST LOUIS       SUNNY     51  42  71 E9        30.33R
$$


CITY           SKY/WX    TMP DP  RH WIND       PRES   REMARKS
TERRE HAUTE    NOT AVBL
EVANSVILLE     SUNNY     51  41  68 NE8       30.33R
INDIANAPOLIS   MOSUNNY   48  38  68 NE7       30.32R
LAFAYETTE      SUNNY     45  39  79 E7        30.36R
MADISON        MOSUNNY   44  38  79 CALM      30.37R
MILWAUKEE      PTSUNNY   49  40  71 CALM      30.37S
$$





USA.gov is the U.S. government's official web portal to all federal, state and local government web resources and services.